| time (UTC) | temp F | wind direction | speed knots | gust knots | rain 1hr in | rain 24hr in | rain mn in | humidity % | barometer mb |
| 20260507034058 | 54 | 1 | 6.1 | 7.8 | 0.00 | 0.00 | 0.00 | ||
| 20260507033649 | 54 | 8 | 5.2 | 7.8 | 0.00 | 0.00 | 0.00 | ||
| 20260507033558 | 54 | 8 | 5.2 | 7.8 | 0.00 | 0.00 | 0.00 | ||
| 20260507033056 | 54 | 7 | 4.3 | 7.8 | 0.00 | 0.00 | 0.00 | ||
| 20260507032054 | 54 | 1 | 6.1 | 7.0 | 0.00 | 0.00 | 0.00 | ||
| 20260507031052 | 54 | 350 | 3.5 | 8.7 | 0.00 | 0.00 | 0.00 | ||
| 20260507025549 | 54 | 1 | 6.1 | 8.7 | 0.00 | 0.00 | 0.00 | ||
| 20260507025048 | 54 | 0 | 7.0 | 8.7 | 0.00 | 0.00 | 0.00 | ||
| 20260507024547 | 54 | 357 | 7.0 | 8.7 | 0.00 | 0.00 | 0.00 | ||
| 20260507024046 | 54 | 2 | 6.1 | 8.7 | 0.00 | 0.00 | 0.00 | ||
| 20260507023545 | 54 | 354 | 7.0 | 7.8 | 0.00 | 0.00 | 0.00 | ||
| 20260507023044 | 54 | 341 | 6.1 | 7.8 | 0.00 | 0.00 | 0.00 | ||
| 20260507020540 | 54 | 355 | 4.3 | 6.1 | 0.00 | 0.00 | 0.00 | ||
| 20260507015538 | 54 | 357 | 4.3 | 7.0 | 0.00 | 0.00 | 0.00 | ||
| 20260507015037 | 55 | 337 | 5.2 | 7.0 | 0.00 | 0.00 | 0.00 | ||
| 20260507014035 | 55 | 357 | 4.3 | 7.0 | 0.00 | 0.00 | 0.00 | ||
| 20260507013533 | 55 | 355 | 5.2 | 7.0 | 0.00 | 0.00 | 0.00 | ||
| 20260507013033 | 55 | 9 | 4.3 | 7.0 | 0.00 | 0.00 | 0.00 | ||
| 20260507011529 | 55 | 345 | 5.2 | 7.0 | 0.00 | 0.00 | 0.00 | ||
| 20260507010529 | 55 | 355 | 4.3 | 7.0 | 0.00 | 0.00 | 0.00 | ||
| 20260507010027 | 55 | 354 | 4.3 | 7.0 | 0.00 | 0.00 | 0.00 | ||
| 20260507002519 | 55 | 333 | 5.2 | 6.1 | 0.00 | 0.00 | 0.00 | ||
| 20260507002018 | 55 | 327 | 4.3 | 6.1 | 0.00 | 0.00 | 0.00 | ||
| 20260507000516 | 56 | 338 | 0.0 | 7.0 | 0.00 | 0.00 | 0.00 | ||
| 20260506233009 | 56 | 347 | 5.2 | 7.8 | 0.00 | 0.00 | 0.00 | ||
| 20260506231505 | 56 | 329 | 4.3 | 7.0 | 0.00 | 0.00 | 0.00 | ||
| 20260506231004 | 56 | 338 | 5.2 | 7.0 | 0.00 | 0.00 | 0.00 | ||
| 20260506230502 | 56 | 331 | 6.1 | 7.0 | 0.00 | 0.00 | 0.00 | ||
| 20260506230001 | 56 | 317 | 5.2 | 6.1 | 0.00 | 0.00 | 0.00 | ||
| 20260506224959 | 56 | 343 | 5.2 | 7.8 | 0.00 | 0.00 | 0.00 | ||
| 20260506223958 | 57 | 308 | 6.1 | 7.0 | 0.00 | 0.00 | 0.00 | ||
| 20260506223457 | 57 | 298 | 6.1 | 7.0 | 0.00 | 0.00 | 0.00 | ||
| 20260506222956 | 57 | 284 | 5.2 | 7.0 | 0.00 | 0.00 | 0.00 | ||
| 20260506221953 | 58 | 281 | 5.2 | 7.0 | 0.00 | 0.00 | 0.00 | ||
| 20260506221452 | 58 | 275 | 6.1 | 7.0 | 0.00 | 0.00 | 0.00 | ||
| 20260506220951 | 58 | 278 | 5.2 | 7.0 | 0.00 | 0.00 | 0.00 | ||
| 20260506215950 | 58 | 266 | 5.2 | 7.0 | 0.00 | 0.00 | 0.00 | ||
| 20260506214448 | 57 | 277 | 5.2 | 7.0 | 0.00 | 0.00 | 0.00 | ||
| 20260506213444 | 57 | 284 | 5.2 | 7.0 | 0.00 | 0.00 | 0.00 | ||
| 20260506212943 | 57 | 287 | 6.1 | 7.0 | 0.00 | 0.00 | 0.00 | ||
| 20260506212442 | 57 | 294 | 6.1 | 7.0 | 0.00 | 0.00 | 0.00 | ||
| 20260506211941 | 57 | 295 | 6.1 | 7.0 | 0.00 | 0.00 | 0.00 | ||
| 20260506210940 | 57 | 291 | 6.1 | 7.0 | 0.00 | 0.00 | 0.00 | ||
| 20260506205436 | 57 | 288 | 5.2 | 7.0 | 0.00 | 0.00 | 0.00 | ||
| 20260506202934 | 57 | 280 | 6.1 | 6.1 | 0.00 | 0.00 | 0.00 | ||
| 20260506201428 | 57 | 274 | 6.1 | 7.8 | 0.00 | 0.00 | 0.00 | ||
| 20260506200928 | 57 | 271 | 5.2 | 7.8 | 0.00 | 0.00 | 0.00 | ||
| 20260506200426 | 57 | 277 | 6.1 | 7.8 | 0.00 | 0.00 | 0.00 | ||
| 20260506195425 | 57 | 274 | 5.2 | 7.8 | 0.00 | 0.00 | 0.00 | ||
| 20260506194422 | 58 | 280 | 7.0 | 7.8 | 0.00 | 0.00 | 0.00 | ||
| 20260506193420 | 58 | 270 | 3.5 | 7.8 | 0.00 | 0.00 | 0.00 | ||
| 20260506192920 | 58 | 266 | 7.0 | 7.8 | 0.00 | 0.00 | 0.00 | ||
| 20260506192418 | 58 | 260 | 6.1 | 7.0 | 0.00 | 0.00 | 0.00 | ||
| 20260506191917 | 58 | 273 | 5.2 | 7.0 | 0.00 | 0.00 | 0.00 | ||
| 20260506191425 | 58 | 274 | 6.1 | 7.0 | 0.00 | 0.00 | 0.00 | ||
| 20260506191416 | 58 | 274 | 6.1 | 7.0 | 0.00 | 0.00 | 0.00 | ||
| 20260506190915 | 58 | 257 | 4.3 | 6.1 | 0.00 | 0.00 | 0.00 | ||
| 20260506185414 | 58 | 252 | 3.5 | 6.1 | 0.00 | 0.00 | 0.00 | ||
| 20260506184911 | 58 | 243 | 4.3 | 6.1 | 0.00 | 0.00 | 0.00 | ||
| 20260506184032 | 58 | 270 | 3.5 | 4.3 | 0.00 | 0.00 | 0.00 | ||
| 20260506183909 | 58 | 270 | 3.5 | 4.3 | 0.00 | 0.00 | 0.00 | ||
| 20260506182907 | 58 | 250 | 4.3 | 6.1 | 0.00 | 0.00 | 0.00 | ||
| 20260506181404 | 58 | 254 | 3.5 | 5.2 | 0.00 | 0.00 | 0.00 | ||
| 20260506180903 | 58 | 247 | 2.6 | 5.2 | 0.00 | 0.00 | 0.00 | ||
| 20260506180403 | 58 | 260 | 3.5 | 5.2 | 0.00 | 0.00 | 0.00 | ||
| 20260506175901 | 58 | 253 | 3.5 | 6.1 | 0.00 | 0.00 | 0.00 | ||
| 20260506175402 | 58 | 264 | 4.3 | 6.1 | 0.00 | 0.00 | 0.00 | ||
| 20260506174859 | 58 | 249 | 4.3 | 6.1 | 0.00 | 0.00 | 0.00 | ||
| 20260506174358 | 58 | 253 | 0.0 | 6.1 | 0.00 | 0.00 | 0.00 | ||
| 20260506173857 | 57 | 257 | 4.3 | 6.1 | 0.00 | 0.00 | 0.00 | ||
| 20260506173357 | 57 | 266 | 4.3 | 6.1 | 0.00 | 0.00 | 0.00 | ||
| 20260506172354 | 57 | 249 | 4.3 | 7.8 | 0.00 | 0.00 | 0.00 | ||
| 20260506171353 | 57 | 245 | 5.2 | 7.8 | 0.00 | 0.00 | 0.00 | ||
| 20260506170350 | 57 | 249 | 5.2 | 7.8 | 0.00 | 0.00 | 0.00 | ||
| 20260506165348 | 56 | 256 | 5.2 | 7.8 | 0.00 | 0.00 | 0.00 | ||
| 20260506164347 | 56 | 256 | 5.2 | 7.0 | 0.00 | 0.00 | 0.00 | ||
| 20260506163846 | 56 | 245 | 5.2 | 7.0 | 0.00 | 0.00 | 0.00 | ||
| 20260506163345 | 56 | 238 | 4.3 | 6.1 | 0.00 | 0.00 | 0.00 | ||
| 20260506162347 | 56 | 261 | 0.0 | 5.2 | 0.00 | 0.00 | 0.00 | ||
| 20260506160841 | 56 | 275 | 6.1 | 7.0 | 0.00 | 0.00 | 0.00 | ||
| 20260506155336 | 55 | 0 | 0.0 | 0.0 | 0.00 | 0.00 | 0.00 | ||
| 20260506154334 | 55 | 0 | 0.0 | 5.2 | 0.00 | 0.00 | 0.00 | ||
| 20260506153833 | 55 | 0 | 0.0 | 5.2 | 0.00 | 0.00 | 0.00 | ||
| 20260506152831 | 55 | 0 | 1.7 | 4.3 | 0.00 | 0.00 | 0.00 | ||
| 20260506151829 | 55 | 0 | 0.0 | 0.0 | 0.00 | 0.00 | 0.00 | ||
| 20260506151328 | 55 | 198 | 0.0 | 3.5 | 0.00 | 0.00 | 0.00 | ||
| 20260506150327 | 55 | 191 | 0.0 | 3.5 | 0.00 | 0.00 | 0.00 | ||
| 20260506145325 | 55 | 142 | 0.0 | 1.7 | 0.00 | 0.00 | 0.00 | ||
| 20260506144323 | 54 | 176 | 0.0 | 6.1 | 0.00 | 0.00 | 0.00 | ||
| 20260506142819 | 54 | 0 | 0.9 | 4.3 | 0.00 | 0.00 | 0.00 | ||
| 20260506142319 | 54 | 298 | 0.0 | 4.3 | 0.00 | 0.00 | 0.00 | ||
| 20260506141316 | 54 | 0 | 4.3 | 5.2 | 0.00 | 0.00 | 0.00 | ||
| 20260506135313 | 54 | 316 | 0.0 | 7.0 | 0.00 | 0.00 | 0.00 | ||
| 20260506134814 | 54 | 331 | 5.2 | 6.1 | 0.00 | 0.00 | 0.00 | ||
| 20260506132307 | 54 | 284 | 1.7 | 7.0 | 0.00 | 0.00 | 0.00 | ||
| 20260506131806 | 54 | 282 | 0.0 | 7.0 | 0.00 | 0.00 | 0.00 | ||
| 20260506130303 | 54 | 317 | 0.0 | 7.0 | 0.00 | 0.00 | 0.00 | ||
| 20260506125305 | 54 | 313 | 4.3 | 7.0 | 0.00 | 0.00 | 0.00 | ||
| 20260506124800 | 54 | 352 | 5.2 | 5.2 | 0.00 | 0.00 | 0.00 | ||
| 20260506122255 | 54 | 309 | 3.5 | 3.5 | 0.00 | 0.00 | 0.00 | ||
| 20260506121754 | 54 | 0 | 0.0 | 0.9 | 0.00 | 0.00 | 0.00 | ||
| 20260506121253 | 54 | 0 | 0.0 | 3.5 | 0.00 | 0.00 | 0.00 | ||
| 20260506114249 | 54 | 0 | 0.0 | 5.2 | 0.00 | 0.00 | 0.00 | ||
| 20260506113748 | 54 | 170 | 0.0 | 5.2 | 0.00 | 0.00 | 0.00 | ||
| 20260506112744 | 54 | 0 | 0.0 | 0.0 | 0.00 | 0.00 | 0.00 | ||
| 20260506111242 | 54 | 273 | 3.5 | 6.1 | 0.00 | 0.00 | 0.00 | ||
| 20260506110740 | 54 | 278 | 3.5 | 6.1 | 0.00 | 0.00 | 0.00 | ||
| 20260506105738 | 54 | 303 | 0.9 | 5.2 | 0.00 | 0.00 | 0.00 | ||
| 20260506105237 | 54 | 312 | 0.0 | 6.1 | 0.00 | 0.00 | 0.00 | ||
| 20260506104236 | 54 | 294 | 0.0 | 6.1 | 0.00 | 0.00 | 0.00 | ||
| 20260506103734 | 54 | 252 | 4.3 | 6.1 | 0.00 | 0.00 | 0.00 | ||
| 20260506102232 | 54 | 295 | 5.2 | 7.8 | 0.00 | 0.00 | 0.00 | ||
| 20260506101730 | 55 | 0 | 6.1 | 6.1 | 0.00 | 0.00 | 0.00 | ||
| 20260506095226 | 55 | 299 | 6.1 | 7.0 | 0.00 | 0.00 | 0.00 | ||
| 20260506093722 | 55 | 243 | 0.0 | 3.5 | 0.00 | 0.00 | 0.00 | ||
| 20260506093221 | 55 | 254 | 0.0 | 7.0 | 0.00 | 0.00 | 0.00 | ||
| 20260506092721 | 55 | 271 | 1.7 | 7.0 | 0.00 | 0.00 | 0.00 | ||
| 20260506091718 | 55 | 281 | 6.1 | 7.0 | 0.00 | 0.00 | 0.00 | ||
| 20260506091217 | 55 | 302 | 4.3 | 7.0 | 0.00 | 0.00 | 0.00 | ||
| 20260506090716 | 55 | 298 | 4.3 | 7.0 | 0.00 | 0.00 | 0.00 | ||
| 20260506085714 | 55 | 315 | 4.3 | 7.0 | 0.00 | 0.00 | 0.00 | ||
| 20260506085213 | 55 | 294 | 5.2 | 6.1 | 0.00 | 0.00 | 0.00 | ||
| 20260506083209 | 55 | 0 | 0.0 | 5.2 | 0.00 | 0.00 | 0.00 | ||
| 20260506082207 | 55 | 340 | 0.0 | 5.2 | 0.00 | 0.00 | 0.00 | ||
| 20260506081708 | 55 | 303 | 4.3 | 4.3 | 0.00 | 0.00 | 0.00 | ||
| 20260506081205 | 55 | 0 | 0.0 | 5.2 | 0.00 | 0.00 | 0.00 | ||
| 20260506080704 | 55 | 324 | 0.0 | 5.2 | 0.00 | 0.00 | 0.00 | ||
| 20260506080203 | 55 | 315 | 0.0 | 5.2 | 0.00 | 0.00 | 0.00 | ||
| 20260506072156 | 55 | 0 | 0.0 | 0.0 | 0.00 | 0.00 | 0.00 | ||
| 20260506071154 | 55 | 0 | 0.0 | 5.2 | 0.00 | 0.00 | 0.00 | ||
| 20260506070652 | 55 | 0 | 0.0 | 5.2 | 0.00 | 0.00 | 0.00 | ||
| 20260506061642 | 55 | 0 | 0.0 | 0.0 | 0.00 | 0.00 | 0.00 | ||
| 20260506051129 | 56 | 336 | 3.5 | 4.3 | 0.00 | 0.00 | 0.00 | ||
| 20260506050628 | 56 | 324 | 3.5 | 3.5 | 0.00 | 0.00 | 0.00 | ||
| 20260506043622 | 56 | 338 | 2.6 | 4.3 | 0.00 | 0.00 | 0.00 | ||
| 20260506043214 | 56 | 9 | 2.6 | 4.3 | 0.00 | 0.00 | 0.00 | ||
| 20260506043121 | 56 | 9 | 2.6 | 4.3 | 0.00 | 0.00 | 0.00 | ||
| 20260506042619 | 55 | 317 | 3.5 | 5.2 | 0.00 | 0.00 | 0.00 | ||
| 20260506042120 | 55 | 0 | 0.0 | 5.2 | 0.00 | 0.00 | 0.00 | ||
| 20260506041617 | 55 | 313 | 0.0 | 5.2 | 0.00 | 0.00 | 0.00 |